Linn Creek, MO

7:26 AM CST on January 17, 2017 (GMT -0600)
Camdenton

Weather History for KH21 - October, 2012

Change the Weather History Date:

Thursday, October 18, 2012

  Actual Average (KAIZ) Record (KAIZ)
Temperature  
Mean Temperature 52 °F -  
Max Temperature 59 °F 65 °F 84 °F (2004)
Min Temperature 44 °F 43 °F 26 °F (1999)
Degree Days  
Heating Degree Days 14    
Growing Degree Days 2 (Base 50)    
Moisture  
Dew Point 31 °F    
Average Humidity 45    
Maximum Humidity 66    
Minimum Humidity 29    
Precipitation  
Precipitation 0.00 in - - ()
Sea Level Pressure  
Sea Level Pressure 29.68 in    
Wind  
Wind Speed 11 mph ()    
Max Wind Speed 29 mph    
Max Gust Speed 37 mph    
Visibility 10.0 miles    
Events      
Averages and records for this station are not official NWS values.
T = Trace of Precipitation, MM = Missing Value Source: Averaged Metar Reports

Daily Weather History Graph

Daily Weather History Graph

Search for Another Location

Airport or City:

Trip Planner

Search our weather history database for the weather conditions in past years. The results will help you decide how hot, cold, wet, or windy it might be!

Date:

Astronomy

Oct. 18, 2012 Rise Set
Actual Time 7:22 AM CDT 6:28 PM CDT
Civil Twilight 6:56 AM CDT 6:54 PM CDT
Nautical Twilight 6:25 AM CDT 7:25 PM CDT
Astronomical Twilight 5:54 AM CDT 7:55 PM CDT
Moon 11:01 AM CDT (10/18) 9:06 PM CDT (10/18)
Length of Visible Light 11h 58m
Length of Day
11h 05m
Waxing Crescent, 14% of the Moon is Illuminated
Oct 18
Waxing Crescent
Oct 21
First Quarter
Oct 29
Full
Nov 6
Last Quarter
Nov 13
New

Hourly Weather History & Observations

Time (CDT) Temp. Windchill Dew Point Humidity Pressure Visibility Wind Dir Wind Speed Gust Speed Precip Events Conditions
12:15 AM 50.0 °F - 39.2 °F 66% 29.68 in 10.0 mi WSW 9.2 mph - N/A   Clear
12:35 AM 50.0 °F - 37.4 °F 62% 29.68 in 10.0 mi WSW 6.9 mph - N/A   Clear
12:55 AM 50.0 °F - 37.4 °F 62% 29.68 in 10.0 mi WSW 8.1 mph - N/A   Clear
1:15 AM 50.0 °F - 35.6 °F 58% 29.68 in 10.0 mi WSW 6.9 mph - N/A   Scattered Clouds
1:35 AM 48.2 °F - 35.6 °F 62% 29.69 in 10.0 mi WSW 6.9 mph - N/A   Mostly Cloudy
1:55 AM 48.2 °F - 35.6 °F 62% 29.69 in 10.0 mi SW 6.9 mph - N/A   Overcast
2:15 AM 46.4 °F 42.4 °F 35.6 °F 66% 29.69 in 10.0 mi SW 8.1 mph - N/A   Scattered Clouds
2:35 AM 46.4 °F 42.9 °F 33.8 °F 62% 29.69 in 10.0 mi WSW 6.9 mph - N/A   Clear
2:55 AM 48.2 °F - 33.8 °F 58% 29.69 in 10.0 mi WSW 8.1 mph - N/A   Clear
3:15 AM 48.2 °F - 33.8 °F 58% 29.69 in 10.0 mi SW 6.9 mph - N/A   Clear
3:35 AM 46.4 °F 42.9 °F 32.0 °F 57% 29.69 in 10.0 mi SW 6.9 mph - N/A   Clear
3:55 AM 46.4 °F 43.5 °F 33.8 °F 62% 29.69 in 10.0 mi SW 5.8 mph - N/A   Clear
4:15 AM 46.4 °F 42.4 °F 33.8 °F 62% 29.69 in 10.0 mi SW 8.1 mph - N/A   Mostly Cloudy
4:35 AM 46.4 °F 41.9 °F 33.8 °F 62% 29.69 in 10.0 mi WSW 9.2 mph 16.1 mph N/A   Scattered Clouds
4:55 AM 46.4 °F 42.4 °F 32.0 °F 57% 29.68 in 10.0 mi SW 8.1 mph - N/A   Clear
5:15 AM 44.6 °F 41.4 °F 33.8 °F 66% 29.68 in 10.0 mi SW 5.8 mph - N/A   Clear
5:35 AM 44.6 °F 39.7 °F 32.0 °F 61% 29.69 in 10.0 mi WSW 9.2 mph - N/A   Clear
5:55 AM 46.4 °F 40.7 °F 32.0 °F 57% 29.69 in 10.0 mi WSW 12.7 mph 16.1 mph N/A   Clear
6:35 AM 46.4 °F 41.5 °F 32.0 °F 57% 29.71 in 10.0 mi WSW 10.4 mph 18.4 mph N/A   Clear
6:55 AM 44.6 °F 39.2 °F 32.0 °F 61% 29.70 in 10.0 mi WSW 10.4 mph - N/A   Clear
7:15 AM 44.6 °F 39.7 °F 32.0 °F 61% 29.71 in 10.0 mi WSW 9.2 mph - N/A   Clear
7:35 AM 44.6 °F 40.2 °F 32.0 °F 61% 29.72 in 10.0 mi WSW 8.1 mph - N/A   Clear
7:55 AM 44.6 °F 40.2 °F 32.0 °F 61% 29.72 in 10.0 mi WSW 8.1 mph - N/A   Clear
8:15 AM 46.4 °F 42.4 °F 32.0 °F 57% 29.72 in 10.0 mi WSW 8.1 mph 19.6 mph N/A   Clear
8:35 AM 46.4 °F 41.1 °F 30.2 °F 53% 29.72 in 10.0 mi WSW 11.5 mph 19.6 mph N/A   Clear
8:55 AM 48.2 °F - 30.2 °F 50% 29.71 in 10.0 mi WSW 12.7 mph 18.4 mph N/A   Clear
9:15 AM 50.0 °F - 30.2 °F 47% 29.71 in 10.0 mi WSW 12.7 mph 20.7 mph N/A   Clear
9:35 AM 51.8 °F - 30.2 °F 44% 29.71 in 10.0 mi WSW 15.0 mph 21.9 mph N/A   Clear
9:55 AM 51.8 °F - 28.4 °F 41% 29.71 in 10.0 mi WSW 18.4 mph 23.0 mph N/A   Clear
10:15 AM 51.8 °F - 30.2 °F 44% 29.70 in 10.0 mi WSW 18.4 mph 25.3 mph N/A   Clear
10:35 AM 53.6 °F - 28.4 °F 38% 29.70 in 10.0 mi West 18.4 mph 26.5 mph N/A   Clear
10:55 AM 53.6 °F - 28.4 °F 38% 29.70 in 10.0 mi West 19.6 mph 28.8 mph N/A   Clear
11:15 AM 53.6 °F - 28.4 °F 38% 29.70 in 10.0 mi WSW 16.1 mph 26.5 mph N/A   Clear
11:35 AM 53.6 °F - 28.4 °F 38% 29.70 in 10.0 mi WSW 13.8 mph 25.3 mph N/A   Clear
11:55 AM 53.6 °F - 28.4 °F 38% 29.70 in 10.0 mi West 17.3 mph 29.9 mph N/A   Clear
12:15 PM 55.4 °F - 28.4 °F 36% 29.69 in 10.0 mi WSW 16.1 mph 28.8 mph N/A   Clear
12:35 PM 55.4 °F - 28.4 °F 36% 29.69 in 10.0 mi West 19.6 mph 29.9 mph N/A   Clear
12:55 PM 57.2 °F - 30.2 °F 36% 29.68 in 10.0 mi WSW 21.9 mph 28.8 mph N/A   Clear
1:15 PM 57.2 °F - 28.4 °F 33% 29.67 in 10.0 mi SW 17.3 mph 32.2 mph N/A   Clear
1:35 PM 59.0 °F - 30.2 °F 34% 29.67 in 10.0 mi SW 19.6 mph 27.6 mph N/A   Scattered Clouds
1:55 PM 59.0 °F - 30.2 °F 34% 29.66 in 10.0 mi WSW 17.3 mph 28.8 mph N/A   Scattered Clouds
2:15 PM 59.0 °F - 30.2 °F 34% 29.65 in 10.0 mi SW 21.9 mph 29.9 mph N/A   Clear
2:35 PM 59.0 °F - 30.2 °F 34% 29.65 in 10.0 mi SW 18.4 mph 33.4 mph N/A   Clear
2:55 PM 59.0 °F - 30.2 °F 34% 29.65 in 10.0 mi SW 24.2 mph 33.4 mph N/A   Clear
3:15 PM 59.0 °F - 30.2 °F 34% 29.65 in 10.0 mi SW 23.0 mph 29.9 mph N/A   Scattered Clouds
3:35 PM 59.0 °F - 30.2 °F 34% 29.65 in 10.0 mi WSW 28.8 mph 36.8 mph N/A   Scattered Clouds
3:55 PM 59.0 °F - 28.4 °F 31% 29.65 in 10.0 mi WSW 18.4 mph 31.1 mph N/A   Scattered Clouds
4:15 PM 59.0 °F - 28.4 °F 31% 29.65 in 10.0 mi WSW 18.4 mph 34.5 mph N/A   Mostly Cloudy
4:35 PM 59.0 °F - 28.4 °F 31% 29.65 in 10.0 mi WSW 16.1 mph 27.6 mph N/A   Mostly Cloudy
4:55 PM 59.0 °F - 28.4 °F 31% 29.65 in 10.0 mi WSW 19.6 mph 32.2 mph N/A   Overcast
5:15 PM 59.0 °F - 26.6 °F 29% 29.66 in 10.0 mi WSW 16.1 mph 34.5 mph N/A   Overcast
5:35 PM 59.0 °F - 26.6 °F 29% 29.66 in 10.0 mi WSW 16.1 mph 23.0 mph N/A   Overcast
5:55 PM 59.0 °F - 26.6 °F 29% 29.66 in 10.0 mi WSW 17.3 mph 25.3 mph N/A   Overcast
6:15 PM 59.0 °F - 26.6 °F 29% 29.66 in 10.0 mi WSW 13.8 mph 23.0 mph N/A   Overcast
6:35 PM 57.2 °F - 28.4 °F 33% 29.66 in 10.0 mi WSW 15.0 mph - N/A   Overcast
6:55 PM 57.2 °F - 26.6 °F 31% 29.67 in 10.0 mi West 15.0 mph 31.1 mph N/A   Overcast
7:15 PM 57.2 °F - 28.4 °F 33% 29.67 in 10.0 mi WSW 12.7 mph 25.3 mph N/A   Overcast
7:35 PM 57.2 °F - 28.4 °F 33% 29.66 in 10.0 mi WSW 11.5 mph 23.0 mph N/A   Overcast
7:55 PM 55.4 °F - 28.4 °F 36% 29.66 in 10.0 mi WSW 10.4 mph 18.4 mph N/A   Overcast
8:35 PM 55.4 °F - 28.4 °F 36% 29.67 in 10.0 mi West 18.4 mph 28.8 mph N/A   Overcast
8:55 PM 55.4 °F - 28.4 °F 36% 29.67 in 10.0 mi West 12.7 mph 21.9 mph N/A   Overcast
9:15 PM 55.4 °F - 30.2 °F 38% 29.68 in 10.0 mi WNW 23.0 mph 31.1 mph N/A   Overcast
9:35 PM 53.6 °F - 32.0 °F 44% 29.67 in 10.0 mi West 13.8 mph 27.6 mph N/A   Overcast
9:55 PM 53.6 °F - 32.0 °F 44% 29.67 in 10.0 mi West 15.0 mph 23.0 mph N/A   Mostly Cloudy
10:15 PM 53.6 °F - 32.0 °F 44% 29.67 in 10.0 mi West 18.4 mph 32.2 mph N/A   Overcast
10:35 PM 53.6 °F - 32.0 °F 44% 29.67 in 10.0 mi West 15.0 mph 25.3 mph N/A   Overcast
10:55 PM 53.6 °F - 32.0 °F 44% 29.67 in 10.0 mi West 18.4 mph 29.9 mph N/A   Overcast